Torna al catalogo

STARLINK-1047

AttivoComunicazioniVLEO
NORAD 44752·PAYLOAD·🇺🇸 United States

Lanciato Nov 11, 2019 da Cape Canaveral Space Force Station

Loading…

Prossimi Passaggi (prossime 24 ore)

TLE

AggiornatoSource: CelesTrak SupGP

Epoca: Sep 14, 2026, 20:41 UTC

1 44752C 19074AR  26257.86229167 -.00005257  00000+0 -13752-3 0  2574
2 44752  53.0675 339.0033 0002517  55.4153  87.8587 15.38171380    10

Traccia STARLINK-1047 in tempo reale con AllMySat

Download on the App Store